TimeEDT,TemperatureF,Dew PointF,Humidity,Sea Level PressureIn,VisibilityMPH,Wind Direction,Wind SpeedMPH,Gust SpeedMPH,PrecipitationIn,Events,Conditions,WindDirDegrees,DateUTC
12:53 AM,60.1,57.9,93,30.01,4.0,Calm,Calm,-,N/A,,Partly Cloudy,0,2013-10-01 04:53:00
1:53 AM,61.0,59.0,93,30.01,5.0,South,3.5,-,N/A,,Clear,190,2013-10-01 05:53:00
2:53 AM,57.9,57.0,97,30.02,4.0,Calm,Calm,-,N/A,,Clear,0,2013-10-01 06:53:00
3:15 AM,57.2,55.4,94,30.03,0.8,Calm,Calm,-,N/A,,Clear,0,2013-10-01 07:15:00
3:23 AM,57.2,57.2,100,30.03,0.2,Calm,Calm,-,N/A,Fog,Fog,0,2013-10-01 07:23:00
3:39 AM,57.2,57.2,100,30.03,0.5,Calm,Calm,-,N/A,Fog,Fog,0,2013-10-01 07:39:00
3:53 AM,57.0,55.9,96,30.02,0.2,Calm,Calm,-,N/A,Fog,Fog,0,2013-10-01 07:53:00
4:00 AM,57.2,57.2,100,30.03,0.5,Calm,Calm,-,N/A,Fog,Fog,0,2013-10-01 08:00:00
4:06 AM,57.2,55.4,94,30.03,2.5,Calm,Calm,-,N/A,,Clear,0,2013-10-01 08:06:00
4:13 AM,55.4,55.4,100,30.03,4.0,Calm,Calm,-,N/A,,Clear,0,2013-10-01 08:13:00
4:37 AM,55.4,55.4,100,30.03,1.8,Calm,Calm,-,N/A,,Clear,0,2013-10-01 08:37:00
4:48 AM,57.2,55.4,94,30.03,0.8,Calm,Calm,-,N/A,,Clear,0,2013-10-01 08:48:00
4:53 AM,57.0,57.0,100,30.02,0.8,Calm,Calm,-,N/A,,Clear,0,2013-10-01 08:53:00
5:02 AM,55.4,55.4,100,30.03,0.2,Calm,Calm,-,N/A,Fog,Fog,0,2013-10-01 09:02:00
5:31 AM,57.2,55.4,94,30.04,1.0,South,3.5,-,N/A,,Mist,170,2013-10-01 09:31:00
5:33 AM,57.2,55.4,94,30.04,2.5,South,3.5,-,N/A,,Partly Cloudy,170,2013-10-01 09:33:00
5:40 AM,55.4,55.4,100,30.05,4.0,Calm,Calm,-,N/A,,Clear,0,2013-10-01 09:40:00
5:53 AM,55.9,55.9,100,30.04,4.0,Calm,Calm,-,N/A,,Clear,0,2013-10-01 09:53:00
6:05 AM,55.4,55.4,100,30.05,2.0,Calm,Calm,-,N/A,,Clear,0,2013-10-01 10:05:00
6:28 AM,55.4,55.4,100,30.06,0.8,Calm,Calm,-,N/A,,Clear,0,2013-10-01 10:28:00
6:36 AM,53.6,53.6,100,30.06,0.2,Calm,Calm,-,N/A,Fog,Fog,0,2013-10-01 10:36:00
6:53 AM,55.0,55.0,100,30.06,8.0,Calm,Calm,-,N/A,Fog,Patches of Fog,0,2013-10-01 10:53:00
7:53 AM,55.0,55.0,100,30.07,6.0,Calm,Calm,-,N/A,Fog,Clear,0,2013-10-01 11:53:00
8:53 AM,61.0,59.0,93,30.09,5.0,SSW,3.5,-,N/A,,Clear,210,2013-10-01 12:53:00
9:53 AM,66.0,61.0,84,30.09,6.0,West,5.8,-,N/A,,Haze,260,2013-10-01 13:53:00
10:53 AM,71.1,62.1,73,30.09,10.0,SSW,3.5,-,N/A,,Clear,210,2013-10-01 14:53:00
11:53 AM,72.0,60.1,66,30.07,10.0,SW,11.5,-,N/A,,Mostly Cloudy,230,2013-10-01 15:53:00
12:53 PM,75.0,60.1,60,30.06,10.0,SW,12.7,-,N/A,,Partly Cloudy,220,2013-10-01 16:53:00
1:53 PM,77.0,57.9,52,30.04,10.0,WSW,11.5,-,N/A,,Scattered Clouds,240,2013-10-01 17:53:00
2:53 PM,75.9,57.9,54,30.03,10.0,SW,10.4,16.1,N/A,,Scattered Clouds,230,2013-10-01 18:53:00
3:53 PM,79.0,57.9,48,30.02,10.0,SW,10.4,-,N/A,,Clear,230,2013-10-01 19:53:00
4:53 PM,77.0,57.9,52,30.01,10.0,WSW,10.4,-,N/A,,Partly Cloudy,250,2013-10-01 20:53:00
5:53 PM,75.0,57.9,55,30.01,10.0,SW,10.4,17.3,N/A,,Clear,230,2013-10-01 21:53:00
6:53 PM,73.9,57.0,55,30.02,10.0,WSW,9.2,-,N/A,,Partly Cloudy,240,2013-10-01 22:53:00
7:53 PM,71.1,57.9,63,30.03,10.0,SW,5.8,-,N/A,,Clear,230,2013-10-01 23:53:00
8:53 PM,68.0,59.0,73,30.03,10.0,SW,5.8,-,N/A,,Clear,220,2013-10-02 00:53:00
9:53 PM,66.0,59.0,78,30.04,10.0,SSW,5.8,-,N/A,,Clear,210,2013-10-02 01:53:00
10:53 PM,64.9,57.9,78,30.04,10.0,SW,4.6,-,N/A,,Clear,220,2013-10-02 02:53:00
11:53 PM,64.9,59.0,81,30.04,10.0,SW,4.6,-,N/A,,Clear,220,2013-10-02 03:53:00